Total_Precipitation_Accumulation
0.07 0.06 0.05 0.05 0.04 0.04 0.03 0.03 0.02 0.02 0.02 0.03 0.03 0.03 0.03 0.02 0.03 0.04 0.06 0.07 0.07 0.07 0.07 0.07 0.07 0.08 0.09 0.09 0.10 0.11 0.13 0.19 0.22 0.11 0.05 0.06 0.11 0.18 0.26 0.29 0.30 0.28 0.25
0.08 0.06 0.05 0.04 0.04 0.03 0.03 0.03 0.03 0.03 0.03 0.03 0.04 0.03 0.03 0.03 0.04 0.06 0.06 0.06 0.07 0.07 0.07 0.07 0.07 0.07 0.08 0.07 0.08 0.09 0.11 0.16 0.24 0.20 0.10 0.06 0.09 0.15 0.20 0.22 0.21 0.20 0.22
0.06 0.04 0.03 0.02 0.02 0.02 0.03 0.03 0.03 0.03 0.04 0.04 0.04 0.04 0.04 0.05 0.06 0.06 0.06 0.06 0.06 0.06 0.06 0.07 0.08 0.08 0.07 0.06 0.08 0.10 0.12 0.16 0.22 0.23 0.14 0.10 0.12 0.19 0.26 0.26 0.22 0.26 0.25
0.04 0.03 0.03 0.02 0.03 0.03 0.04 0.04 0.04 0.05 0.05 0.05 0.04 0.04 0.05 0.06 0.05 0.03 0.03 0.03 0.04 0.04 0.05 0.07 0.08 0.09 0.09 0.11 0.12 0.13 0.16 0.19 0.19 0.21 0.16 0.11 0.14 0.18 0.24 0.31 0.31 0.28 0.27
0.05 0.04 0.04 0.04 0.04 0.05 0.06 0.06 0.06 0.06 0.05 0.05 0.05 0.05 0.04 0.03 0.01 0.00 0.00 0.01 0.01 0.02 0.04 0.07 0.08 0.09 0.13 0.15 0.14 0.16 0.20 0.23 0.24 0.24 0.20 0.16 0.15 0.20 0.25 0.29 0.30 0.31 0.27
0.08 0.08 0.07 0.06 0.06 0.07 0.07 0.07 0.07 0.07 0.06 0.04 0.03 0.02 0.02 0.01 0.00 0.00 0.00 0.00 0.01 0.02 0.05 0.06 0.04 0.04 0.05 0.06 0.10 0.16 0.22 0.26 0.30 0.31 0.27 0.22 0.16 0.19 0.26 0.32 0.34 0.35 0.29
0.14 0.12 0.10 0.09 0.09 0.09 0.07 0.06 0.05 0.04 0.03 0.02 0.02 0.01 0.01 0.01 0.00 0.00 0.00 0.00 0.02 0.04 0.07 0.06 0.04 0.03 0.05 0.07 0.10 0.14 0.17 0.23 0.31 0.37 0.34 0.23 0.20 0.23 0.35 0.43 0.39 0.38 0.36
0.17 0.15 0.13 0.11 0.10 0.08 0.06 0.05 0.03 0.02 0.02 0.02 0.02 0.01 0.02 0.01 0.00 0.00 0.00 0.01 0.02 0.04 0.05 0.06 0.07 0.06 0.07 0.10 0.11 0.16 0.17 0.19 0.27 0.34 0.34 0.29 0.30 0.32 0.39 0.42 0.38 0.38 0.31
0.17 0.13 0.10 0.07 0.06 0.05 0.04 0.03 0.02 0.02 0.02 0.01 0.01 0.02 0.02 0.03 0.00 0.00 0.00 0.01 0.02 0.02 0.03 0.04 0.06 0.07 0.08 0.11 0.15 0.21 0.22 0.28 0.45 0.63 0.62 0.56 0.56 0.53 0.42 0.34 0.35 0.39 0.37
0.09 0.06 0.04 0.03 0.02 0.02 0.02 0.02 0.02 0.02 0.01 0.01 0.01 0.02 0.03 0.04 0.01 0.00 0.01 0.02 0.02 0.02 0.02 0.02 0.05 0.08 0.09 0.13 0.17 0.25 0.33 0.42 0.64 0.83 0.73 0.65 0.56 0.53 0.48 0.36 0.39 0.48 0.45
0.03 0.02 0.01 0.01 0.01 0.01 0.01 0.01 0.02 0.01 0.01 0.01 0.02 0.02 0.03 0.03 0.02 0.00 0.01 0.02 0.03 0.04 0.04 0.05 0.08 0.14 0.14 0.15 0.23 0.33 0.49 0.59 0.74 0.87 0.70 0.52 0.42 0.35 0.35 0.38 0.39 0.39 0.34
0.01 0.01 0.01 0.01 0.00 0.00 0.01 0.01 0.01 0.01 0.01 0.01 0.01 0.02 0.02 0.03 0.02 0.01 0.00 0.01 0.03 0.05 0.10 0.13 0.17 0.22 0.19 0.24 0.34 0.50 0.66 0.75 0.73 0.73 0.57 0.40 0.30 0.29 0.32 0.31 0.26 0.22 0.22
0.01 0.01 0.01 0.01 0.00 0.00 0.00 0.00 0.01 0.01 0.01 0.01 0.02 0.02 0.02 0.03 0.03 0.01 0.01 0.01 0.04 0.07 0.14 0.25 0.29 0.27 0.32 0.41 0.57 0.71 0.77 0.75 0.70 0.58 0.45 0.35 0.25 0.23 0.23 0.24 0.21 0.19 0.19
0.01 0.01 0.01 0.01 0.01 0.00 0.00 0.00 0.01 0.01 0.01 0.02 0.02 0.03 0.04 0.04 0.04 0.03 0.03 0.04 0.06 0.08 0.12 0.25 0.35 0.38 0.49 0.63 0.73 0.76 0.76 0.78 0.69 0.51 0.40 0.32 0.25 0.21 0.20 0.19 0.19 0.19 0.22
0.01 0.01 0.01 0.01 0.01 0.01 0.00 0.00 0.01 0.01 0.01 0.02 0.03 0.04 0.07 0.07 0.05 0.05 0.06 0.08 0.10 0.13 0.16 0.19 0.24 0.32 0.48 0.62 0.70 0.72 0.70 0.71 0.66 0.52 0.42 0.34 0.28 0.24 0.23 0.20 0.18 0.19 0.22
0.01 0.01 0.01 0.00 0.00 0.00 0.01 0.01 0.01 0.00 0.00 0.01 0.02 0.04 0.05 0.06 0.04 0.03 0.05 0.08 0.11 0.17 0.18 0.25 0.34 0.42 0.52 0.63 0.70 0.74 0.70 0.63 0.57 0.52 0.45 0.39 0.32 0.28 0.26 0.22 0.19 0.19 0.21
0.00 0.01 0.00 0.00 0.00 0.00 0.01 0.02 0.04 0.03 0.02 0.01 0.01 0.02 0.03 0.03 0.04 0.03 0.03 0.06 0.09 0.15 0.20 0.32 0.45 0.52 0.58 0.63 0.64 0.64 0.66 0.63 0.54 0.48 0.44 0.40 0.34 0.28 0.25 0.23 0.20 0.18 0.19
0.00 0.00 0.00 0.00 0.00 0.01 0.01 0.02 0.03 0.05 0.06 0.06 0.03 0.02 0.02 0.03 0.04 0.04 0.04 0.04 0.06 0.13 0.25 0.40 0.50 0.56 0.59 0.62 0.60 0.57 0.58 0.57 0.51 0.43 0.38 0.35 0.31 0.26 0.23 0.21 0.18 0.14 0.12
0.00 0.00 0.00 0.00 0.00 0.00 0.01 0.02 0.03 0.04 0.05 0.05 0.04 0.02 0.02 0.04 0.05 0.07 0.08 0.06 0.11 0.18 0.29 0.40 0.48 0.51 0.52 0.53 0.53 0.52 0.51 0.51 0.46 0.41 0.37 0.35 0.31 0.26 0.21 0.16 0.12 0.09 0.08
0.00 0.00 0.00 0.00 0.00 0.00 0.01 0.01 0.02 0.04 0.04 0.05 0.04 0.03 0.04 0.06 0.08 0.09 0.09 0.10 0.13 0.19 0.27 0.37 0.44 0.44 0.42 0.39 0.39 0.39 0.40 0.40 0.38 0.36 0.34 0.32 0.29 0.25 0.19 0.14 0.10 0.08 0.07
0.01 0.00 0.00 0.00 0.00 0.00 0.00 0.01 0.01 0.02 0.03 0.04 0.04 0.05 0.09 0.10 0.13 0.16 0.18 0.20 0.21 0.23 0.26 0.29 0.34 0.37 0.36 0.33 0.30 0.27 0.28 0.30 0.30 0.28 0.27 0.25 0.22 0.19 0.15 0.11 0.08 0.06 0.04
0.01 0.01 0.00 0.00 0.00 0.00 0.00 0.00 0.00 0.01 0.02 0.02 0.03 0.04 0.10 0.10 0.14 0.19 0.24 0.27 0.29 0.28 0.26 0.26 0.28 0.30 0.29 0.28 0.27 0.24 0.23 0.23 0.23 0.22 0.22 0.20 0.17 0.14 0.11 0.08 0.05 0.04 0.03
0.00 0.01 0.00 0.00 0.00 0.00 0.00 0.00 0.00 0.00 0.01 0.01 0.02 0.03 0.06 0.10 0.15 0.22 0.28 0.30 0.29 0.30 0.26 0.24 0.27 0.30 0.28 0.24 0.22 0.21 0.20 0.20 0.19 0.19 0.20 0.18 0.15 0.11 0.08 0.05 0.03 0.02 0.02
0.00 0.00 0.00 0.00 0.00 0.00 0.00 0.00 0.00 0.00 0.00 0.00 0.01 0.03 0.05 0.08 0.13 0.19 0.25 0.28 0.30 0.30 0.31 0.32 0.33 0.32 0.29 0.23 0.20 0.18 0.18 0.19 0.18 0.20 0.19 0.16 0.12 0.09 0.06 0.03 0.02 0.01 0.01
0.00 0.00 0.00 0.00 0.00 0.00 0.00 0.00 0.00 0.00 0.00 0.00 0.01 0.02 0.03 0.05 0.08 0.11 0.16 0.20 0.23 0.26 0.28 0.31 0.32 0.30 0.26 0.21 0.17 0.14 0.16 0.16 0.14 0.16 0.19 0.15 0.11 0.08 0.05 0.03 0.02 0.01 0.01
0.00 0.00 0.00 0.00 0.00 0.00 0.00 0.00 0.00 0.00 0.00 0.00 0.00 0.01 0.02 0.03 0.06 0.09 0.11 0.13 0.14 0.17 0.21 0.27 0.29 0.23 0.15 0.11 0.11 0.10 0.08 0.06 0.05 0.07 0.14 0.15 0.11 0.09 0.07 0.04 0.02 0.01 0.01